Regional Weather Roundup
Issued by NWS Wakefield, VA

Home | Current Version | Previous Version | Graphics & Text | Print | Product List | Glossary On
Versions: 1 2 3 4 5 6 7 8 9 10 11 12 13 14 15 16 17 18 19 20 21 22 23 24 25 26 27 28 29 30 31 32 33 34 35 36 37 38 39 40 41 42 43 44 45 46 47 48 49 50
000
ASUS41 KAKQ 282314
RWRAKQ

REGIONAL WEATHER ROUNDUP
NATIONAL WEATHER SERVICE WAKEFIELD VA
700 PM EDT FRI AUG 28 2015

Note: "fair" indicates few or no clouds below 12,000 feet with no
significant weather and/or obstructions to visibility. * = Denotes
station may not report precipitation (e.g., rain,snow,etc.),
thunder or fog.

VAZ042-051-052>054-056-290000-
NORTHERN VIRGINIA

CITY           SKY/WX    TMP DP  RH WIND       PRES   REMARKS
WASH NATIONAL  PTCLDY    80  62  54 SE13      30.14S
DULLES         PTCLDY    79  59  50 SE7       30.13F
FORT BELVOIR   CLEAR     78  63  61 SE1       30.13F
QUANTICO       CLEAR     80  59  48 S5        30.14F
FREDERICKSBRG* CLEAR     83  61  47 E7        30.12F
STAFFORD*      CLEAR     78  60  53 E5        30.17F
WARRENTON      CLEAR     80  65  60 CALM      30.13S
CULPEPER*      CLEAR     78  62  57 CALM      30.14S
MANASSAS*      CLEAR     79  64  61 SE7       30.14S
LEESBURG*      CLEAR     82  63  51 SW6       30.14S
WINCHESTER     PTCLDY    79  59  50 E6        30.15R
FRONT ROYAL*   FAIR      77  63  61 CALM      30.13S
LURAY*         MOCLDY    77  59  53 E3        30.14R
$$

VAZ048-049-060>072-079>083-290000-
CENTRAL AND SOUTH CENTRAL VIRGINIA

CITY           SKY/WX    TMP DP  RH WIND       PRES   REMARKS
RICHMOND       PTCLDY    80  60  50 SE6       30.14S
CHESTERFIELD*  FAIR      81  54  39 SE7       30.15S
PETERSBURG*    CLEAR     79  68  67 E3        30.15S
HANOVER        CLEAR     78  62  57 VRB5      30.15F
TAPPAHANNOCK*  CLEAR     78  58  48 CALM      30.16S
QUINTON*       FAIR      79  64  60 E5        30.14F
CHARLOTTSVILLE CLEAR     80  61  52 S6        30.13F
GORDONSVILLE*  FAIR      79  64  60 CALM      30.13S
ORANGE*        CLEAR     81  61  50 E3        30.14S
LOUISA*        CLEAR     81  63  54 CALM      30.13S
BUMPASS*       FAIR      79  61  52 E3        30.13F
FARMVILLE*     CLEAR     83  56  39 E5        30.12F
CREWE*         FAIR     N/A N/A N/A CALM      30.14S
FORT PICKETT*  FAIR      79  60  52 SE5       30.15S
CHASE CITY*    FAIR      83  62  49 SE3       30.14S
CLARKSVILLE*   MOCLDY    81  59  47 E3        30.13F
SOUTH HILL*    CLEAR     79  62  56 CALM      30.20S
LAWRENCEVILLE* FAIR      77  63  61 CALM      30.14S
EMPORIA*       CLEAR     79  61  53 CALM      30.16S
$$

VAZ088>098-290000-
SOUTHEAST VIRGINIA

CITY           SKY/WX    TMP DP  RH WIND       PRES   REMARKS
NORFOLK        CLEAR     77  57  50 NE7       30.16S
VIRGINIA BEACH PTCLDY    79  58  48 E5        30.16R
NORFOLK NAVAL  PTCLDY    77  58  51 E7        30.17S
WEST POINT*    CLEAR     80  56  44 E7        30.17S
SALUDA*        FAIR      76  57  51 CALM      30.16S
NEWPORT NEWS   CLEAR     78  57  48 E9        30.16S
LANGLEY AFB    CLEAR     77  57  50 E8        30.15S
FORT EUSTIS    CLEAR     80  56  43 E7        30.14S
WILLIAMSBURG*  CLEAR     81  63  54 CALM      30.16S
HR EXEC AP*      N/A     79  57  47 NE6       30.18S
FRANKLIN*      CLEAR     78  57  47 E3        30.15F
WAKEFIELD      CLEAR     80  60  50 E3        30.15S
$$

VAZ020-022-025-037-045-290000-
WEST CENTRAL AND SOUTHWEST VIRGINIA

CITY           SKY/WX    TMP DP  RH WIND       PRES   REMARKS
STAUNTON*      MOCLDY    80  61  52 SE6       30.17R
WAYNESBORO*    FAIR      78  61  56 SE8       30.16S
HOT SPRINGS VA CLOUDY    70  58  66 S7        30.26S
LYNCHBURG      CLEAR     79  59  50 SE3       30.15F
DANVILLE       CLEAR     82  59  45 E5        30.13F
SOUTH BOSTON*  FAIR      81  58  46 E3        30.13F
MARTINSVILLE   CLEAR     81  61  50 CALM      30.17S
ROANOKE        PTCLDY    80  59  48 S9        30.16S
BLACKSBURG     MOSUNNY   75  62  64 S6        30.22S
DUBLIN*        CLOUDY    76  63  64 SW3       30.20S
MARION*        SUNNY     75  61  61 CALM      30.23S
HILLSVILLE*    SUNNY     73  60  65 S5        30.22R
RICHLANDS*     FAIR      75  27  16 NE5       30.20S
WISE*          SUNNY     79  55  44 CALM      30.21S
ABINGDON*      SUNNY     80  54  40 SW3       30.17S
$$

MDZ021>025-VAZ099-100-290000-
SOUTHERN MARYLAND AND THE DELMARVA PENINSULA

CITY           SKY/WX    TMP DP  RH WIND       PRES   REMARKS
PATUXENT RIVER PTCLDY    76  58  53 SE3       30.15S
BAY BRIDGE APT   N/A     79  54  41 SE3       30.15S
LEONARDTOWN    CLEAR     73  57  56 CALM      30.16F
DOVER          CLEAR     77  61  58 SE2       30.13F
GEORGETOWN     PTCLDY    76  55  48 SE6       30.16S
EASTON         CLEAR     79  57  47 CALM      30.19
CAMBRIDGE      CLEAR     77  59  53 CALM      30.15S
SALISBURY      PTCLDY    74  58  57 SE7       30.16S
OCEAN CITY     CLEAR     75  55  49 SE5       30.17R
WALLOPS ISLAND CLEAR     75  57  53 SE6       30.17S
ACCOMACK*      CLEAR     72  46  40 SE5       30.17S
$$

NCZ012>017-030>032-290000-
NORTH CENTRAL AND EASTERN NORTH CAROLINA

CITY           SKY/WX    TMP DP  RH WIND       PRES   REMARKS
ROANOKE RAPIDS FAIR      79  59  50 E5        30.14S
RALEIGH        PTCLDY    83  56  39 E7        30.14R
ELIZABETH CITY MOCLDY    77  60  55 NE10      30.16S
AHOSKIE*       CLEAR     78  57  47 CALM      30.15S
EDENTON*       MOCLDY    77  59  54 E5        30.15S
CURRITUCK*     MOCLDY    78  58  51 NE7       30.17S
KILL DEVIL HLS MOCLDY    77  63  61 NE7       30.14S
MANTEO         MOCLDY    75  64  67 NE9       30.16S
CAPE HATTERAS  CLEAR     77  65  66 NE12      30.13R
TARBORO*       FAIR      80  62  53 E3        30.15R
GOLDSBORO      PTCLDY    81  62  53 E8        30.12S
WASHINGTON     PTCLDY    77  63  62 E5        30.15R
GREENVILLE     MOCLDY    81  63  54 E6        30.16R
NEW BERN       PTCLDY    78  60  53 NE10      30.14S
WILMINGTON     PTCLDY    79  67  66 NE6       30.11S
$$

VAZ048-290000-
ELSEWHERE

CITY           SKY/WX    TMP DP  RH WIND       PRES   REMARKS
HARRISBURG PA  PTCLDY    76  63  64 CALM      30.13F
BALTIMORE      PTCLDY    76  59  55 SE5       30.14S
ANNAPOLIS      CLEAR     77  56  48 SE8       30.14F
ANDREWS AFB    CLEAR     76  62  60 E8        30.14S
PHILADELPHIA   PTCLDY    82  52  35 NW8       30.14S
HENDERSON NC   CLEAR     80  54  40 NE3       30.14S
GREENSBORO     PTCLDY    81  54  39 CALM      30.14S
ROCKY MOUNT    CLEAR     84  55  36 E5        30.13S
$$

VAZ100-290000-
MARINE

STATION/POSITION TIME  TEMP    WIND        PRES    WAVE   SWELL
                       AIR SEA DIR/SP/G            HT/PER HT/PER
                 (UTC) (F)     (DEG/KT/KT) (MB)    (FT/S) (FT/S)
15NM E FENWICK I 2250   75 79  100/  4/  6 1021.4S   3/10   3/10
CHESAPEAKE LGHT  2200   76      60/  9/ 10 1021.9S
CAPE HENRY BUOY  2228      79                N/A     3/11   2/11
CAPE CHARLES BUO 2226      79                N/A     3/10   3/10
OFFSHORE WE BUOY 2211      78                N/A     3/11   3/11
64NM E OF VA BCH 2250   76 80   30/ 14/ 16 1020.6R   4/ 9   3/ 9
44100 DUCK FRF   2224      78                N/A     4/11   2/11
44056 DUCK FRF   2211      79                N/A     4/11   2/11
DIAMOND SHLS NC  2250   79 84   40/ 17/ 21 1019.6R   5/11   3/11
CAPE LOOKOUT NC  2300   78      50/ 18/ 20 1019.6S
$$


USA.gov is the U.S. government's official web portal to all federal, state and local government web resources and services.